DLH2CM EDDM-ENGM

Flight info

Callsign DLH2CM
Flight time 1h 43m
Altitude 36000
Route INPUD2S INPUD Y102 UPALA M726 LASGA DCT EMBOX DCT BUMIL DCT GIMRU DCT SABAK L997 LUNIP
Aircraft A321/M-SDE2E3FGIJ1LORWXYZ/HB1

Departure

Time 2026-05-06 19:16
Airport Munich Airport (EDDM)

Arrival

Time 2026-05-06 20:59
Airport Oslo-Gardermoen International Airport (ENGM)
Time Latitude Longitude Altitude Speed Heading
2026-05-06 18:33 48.35282 11.79770 1478 ft 0 kts 83°
2026-05-06 19:05 48.35280 11.79745 1476 ft 4 kts 81°
2026-05-06 19:05 48.35275 11.79705 1476 ft 4 kts 75°
2026-05-06 19:05 48.35267 11.79666 1471 ft 4 kts 64°
2026-05-06 19:05 48.35252 11.79635 1477 ft 4 kts 30°
2026-05-06 19:06 48.35238 11.79628 1471 ft 1 kts 353°
2026-05-06 19:06 48.35236 11.79629 1471 ft 0 kts 353°
2026-05-06 19:08 48.35236 11.79628 1485 ft 1 kts 353°
2026-05-06 19:08 48.35280 11.79582 1478 ft 19 kts 325°
2026-05-06 19:09 48.35375 11.79533 1485 ft 15 kts 353°
2026-05-06 19:09 48.35467 11.79519 1481 ft 13 kts 354°
2026-05-06 19:09 48.35558 11.79504 1484 ft 14 kts 353°
2026-05-06 19:09 48.35654 11.79487 1485 ft 13 kts 354°
2026-05-06 19:10 48.35730 11.79475 1478 ft 10 kts 354°
2026-05-06 19:10 48.35808 11.79463 1477 ft 13 kts 354°
2026-05-06 19:10 48.35904 11.79467 1476 ft 14 kts 20°
2026-05-06 19:10 48.36009 11.79487 1477 ft 13 kts 359°
2026-05-06 19:11 48.36101 11.79478 1485 ft 14 kts 354°
2026-05-06 19:11 48.36192 11.79478 1476 ft 13 kts 23°
2026-05-06 19:11 48.36224 11.79609 1476 ft 15 kts 85°
2026-05-06 19:11 48.36237 11.79794 1473 ft 27 kts 83°
2026-05-06 19:12 48.36257 11.80032 1485 ft 16 kts 83°
2026-05-06 19:12 48.36272 11.80231 1485 ft 20 kts 83°
2026-05-06 19:12 48.36288 11.80436 1485 ft 17 kts 84°
2026-05-06 19:12 48.36301 11.80606 1485 ft 17 kts 83°
2026-05-06 19:13 48.36316 11.80790 1482 ft 18 kts 83°
2026-05-06 19:13 48.36332 11.80987 1485 ft 20 kts 83°
2026-05-06 19:13 48.36347 11.81199 1483 ft 21 kts 84°
2026-05-06 19:13 48.36363 11.81419 1485 ft 22 kts 83°
2026-05-06 19:14 48.36382 11.81649 1479 ft 20 kts 83°
2026-05-06 19:14 48.36395 11.81828 1481 ft 17 kts 84°
2026-05-06 19:14 48.36411 11.81971 1476 ft 12 kts 52°
2026-05-06 19:14 48.36517 11.81991 1473 ft 20 kts 353°
2026-05-06 19:15 48.36648 11.81925 1478 ft 20 kts 307°
2026-05-06 19:15 48.36653 11.81638 1474 ft 54 kts 263°
2026-05-06 19:15 48.36575 11.80671 1483 ft 131 kts 263°
2026-05-06 19:15 48.36458 11.79132 2077 ft 151 kts 264°
2026-05-06 19:16 48.36351 11.77613 3171 ft 136 kts 265°
2026-05-06 19:16 48.36254 11.76281 3922 ft 128 kts 265°
2026-05-06 19:16 48.36151 11.74883 4347 ft 140 kts 265°
2026-05-06 19:16 48.36038 11.73364 4776 ft 152 kts 266°
2026-05-06 19:17 48.35915 11.71727 5178 ft 164 kts 265°
2026-05-06 19:17 48.35779 11.69959 5572 ft 176 kts 264°
2026-05-06 19:17 48.35835 11.68087 5977 ft 187 kts 281°
2026-05-06 19:17 48.36480 11.66300 6200 ft 210 kts 309°
2026-05-06 19:18 48.37832 11.65110 6343 ft 244 kts 335°
2026-05-06 19:18 48.39593 11.64451 6459 ft 278 kts 345°
2026-05-06 19:18 48.41556 11.64012 7060 ft 283 kts 343°
2026-05-06 19:18 48.43415 11.63162 7892 ft 280 kts 335°
2026-05-06 19:19 48.45272 11.62201 8605 ft 285 kts 335°
2026-05-06 19:19 48.47165 11.61218 9295 ft 291 kts 335°
2026-05-06 19:19 48.49069 11.60229 9947 ft 296 kts 335°
2026-05-06 19:19 48.51135 11.59266 10206 ft 321 kts 343°
2026-05-06 19:20 48.53378 11.58648 10397 ft 340 kts 346°
2026-05-06 19:20 48.55746 11.58098 10923 ft 347 kts 347°
2026-05-06 19:20 48.58154 11.57582 11541 ft 351 kts 348°
2026-05-06 19:20 48.60590 11.57069 12167 ft 355 kts 348°
2026-05-06 19:21 48.63050 11.56545 12781 ft 359 kts 348°
2026-05-06 19:21 48.65534 11.56005 13412 ft 362 kts 348°
2026-05-06 19:21 48.68042 11.55446 13975 ft 366 kts 348°
2026-05-06 19:21 48.70569 11.54872 14521 ft 369 kts 348°
2026-05-06 19:22 48.73120 11.54286 15068 ft 372 kts 349°
2026-05-06 19:22 48.75685 11.53692 15668 ft 374 kts 349°
2026-05-06 19:22 48.78271 11.53095 16209 ft 377 kts 349°
2026-05-06 19:22 48.80876 11.52497 16733 ft 381 kts 349°
2026-05-06 19:23 48.83506 11.51891 17253 ft 384 kts 349°
2026-05-06 19:23 48.86161 11.51278 17756 ft 388 kts 350°
2026-05-06 19:23 48.88840 11.50661 18231 ft 391 kts 350°
2026-05-06 19:23 48.91548 11.50038 18645 ft 395 kts 350°
2026-05-06 19:24 48.94274 11.49407 19103 ft 398 kts 350°
2026-05-06 19:24 48.97016 11.48777 19640 ft 398 kts 350°
2026-05-06 19:24 48.99765 11.48141 20080 ft 402 kts 350°
2026-05-06 19:24 49.02540 11.47506 20507 ft 405 kts 352°
2026-05-06 19:25 49.05326 11.47239 20922 ft 408 kts 357°
2026-05-06 19:25 49.08177 11.47100 21345 ft 412 kts 358°
2026-05-06 19:25 49.11053 11.46998 21788 ft 415 kts 358°
2026-05-06 19:25 49.13946 11.46911 22227 ft 417 kts 358°
2026-05-06 19:26 49.16863 11.46822 22640 ft 420 kts 358°
2026-05-06 19:26 49.19795 11.46725 23106 ft 422 kts 357°
2026-05-06 19:26 49.22731 11.46621 23543 ft 423 kts 357°
2026-05-06 19:26 49.25685 11.46504 23890 ft 426 kts 357°
2026-05-06 19:27 49.28661 11.46383 24229 ft 429 kts 357°
2026-05-06 19:27 49.31660 11.46262 24558 ft 432 kts 357°
2026-05-06 19:27 49.34677 11.46138 24891 ft 435 kts 357°
2026-05-06 19:27 49.37717 11.46017 25231 ft 439 kts 357°
2026-05-06 19:28 49.40778 11.45898 25564 ft 442 kts 357°
2026-05-06 19:28 49.43861 11.45778 25871 ft 445 kts 356°
2026-05-06 19:28 49.46968 11.45659 26189 ft 448 kts 356°
2026-05-06 19:28 49.50098 11.45542 26497 ft 451 kts 356°
2026-05-06 19:29 49.53247 11.45425 26818 ft 454 kts 357°
2026-05-06 19:29 49.56413 11.45309 27146 ft 457 kts 357°
2026-05-06 19:29 49.59599 11.45187 27445 ft 459 kts 356°
2026-05-06 19:29 49.62804 11.45059 27770 ft 462 kts 356°
2026-05-06 19:30 49.66031 11.44929 28064 ft 465 kts 356°
2026-05-06 19:30 49.69280 11.44794 28364 ft 468 kts 356°
2026-05-06 19:30 49.72548 11.44658 28674 ft 471 kts 356°
2026-05-06 19:30 49.75835 11.44525 28978 ft 474 kts 356°
2026-05-06 19:31 49.79137 11.44392 29276 ft 477 kts 356°
2026-05-06 19:31 49.82461 11.44263 29576 ft 479 kts 356°
2026-05-06 19:31 49.89164 11.43995 30146 ft 484 kts 356°
2026-05-06 19:32 49.92539 11.43862 30402 ft 486 kts 355°
2026-05-06 19:32 49.95920 11.43725 30669 ft 488 kts 356°
2026-05-06 19:32 49.99321 11.43588 30880 ft 490 kts 356°
2026-05-06 19:32 50.02739 11.43455 31083 ft 492 kts 356°
2026-05-06 19:33 50.06167 11.43321 31326 ft 493 kts 356°
2026-05-06 19:33 50.09592 11.43186 31657 ft 492 kts 355°
2026-05-06 19:33 50.13002 11.43051 32013 ft 490 kts 355°
2026-05-06 19:33 50.16406 11.42915 32335 ft 489 kts 355°
2026-05-06 19:34 50.19805 11.42778 32631 ft 488 kts 355°
2026-05-06 19:34 50.23197 11.42641 32911 ft 488 kts 355°
2026-05-06 19:34 50.26549 11.42505 33203 ft 488 kts 355°
2026-05-06 19:34 50.29941 11.42369 33503 ft 488 kts 354°
2026-05-06 19:35 50.33335 11.42232 33795 ft 487 kts 354°
2026-05-06 19:35 50.36722 11.42093 34035 ft 487 kts 354°
2026-05-06 19:35 50.40112 11.41952 34278 ft 487 kts 354°
2026-05-06 19:35 50.43491 11.41813 34513 ft 486 kts 354°
2026-05-06 19:36 50.46872 11.41674 34749 ft 485 kts 355°
2026-05-06 19:36 50.50244 11.41538 34985 ft 485 kts 355°
2026-05-06 19:36 50.53612 11.41403 35211 ft 484 kts 355°
2026-05-06 19:36 50.56980 11.41267 35443 ft 484 kts 355°
2026-05-06 19:37 50.60341 11.41129 35660 ft 483 kts 355°
2026-05-06 19:37 50.63705 11.40990 35772 ft 482 kts 355°
2026-05-06 19:37 50.69253 11.40758 35788 ft 479 kts 355°
2026-05-06 19:38 50.77026 11.40434 35793 ft 478 kts 355°
2026-05-06 19:38 50.83665 11.40156 35789 ft 477 kts 355°
2026-05-06 19:39 50.90298 11.39886 35790 ft 477 kts 355°
2026-05-06 19:39 50.96932 11.39622 35794 ft 477 kts 355°
2026-05-06 19:40 51.03574 11.39342 35820 ft 477 kts 355°
2026-05-06 19:40 51.10213 11.39064 35820 ft 477 kts 355°
2026-05-06 19:41 51.16850 11.38788 35818 ft 477 kts 355°
2026-05-06 19:41 51.23481 11.38509 35820 ft 477 kts 355°
2026-05-06 19:42 51.30110 11.38218 35825 ft 476 kts 355°
2026-05-06 19:42 51.36735 11.37934 35830 ft 476 kts 355°
2026-05-06 19:43 51.43350 11.37667 35826 ft 475 kts 355°
2026-05-06 19:43 51.49981 11.37391 35816 ft 480 kts 355°
2026-05-06 19:44 51.56713 11.37097 35808 ft 486 kts 355°
2026-05-06 19:44 51.63435 11.36797 35823 ft 487 kts 355°
2026-05-06 19:45 51.70209 11.36502 35834 ft 487 kts 355°
2026-05-06 19:45 51.76981 11.36218 35838 ft 485 kts 355°
2026-05-06 19:46 51.83730 11.35929 35849 ft 485 kts 355°
2026-05-06 19:46 51.90483 11.35628 35859 ft 486 kts 355°
2026-05-06 19:47 51.97244 11.35326 35860 ft 486 kts 355°
2026-05-06 19:47 52.04010 11.35039 35855 ft 486 kts 355°
2026-05-06 19:48 52.10773 11.34723 35863 ft 486 kts 355°
2026-05-06 19:48 52.17528 11.34311 35867 ft 486 kts 355°
2026-05-06 19:49 52.24280 11.33884 35873 ft 485 kts 355°
2026-05-06 19:49 52.31022 11.33481 35874 ft 485 kts 355°
2026-05-06 19:50 52.37756 11.33081 35871 ft 484 kts 355°
2026-05-06 19:50 52.44487 11.32685 35875 ft 484 kts 355°
2026-05-06 19:51 52.51168 11.32289 35882 ft 484 kts 355°
2026-05-06 19:51 52.57890 11.31881 35888 ft 483 kts 355°
2026-05-06 19:52 52.64612 11.31476 35890 ft 483 kts 355°
2026-05-06 19:52 52.71332 11.31081 35913 ft 483 kts 355°
2026-05-06 19:53 52.78055 11.30675 35903 ft 483 kts 355°
2026-05-06 19:53 52.84777 11.30273 35908 ft 483 kts 355°
2026-05-06 19:54 52.91493 11.29867 35912 ft 483 kts 355°
2026-05-06 19:54 52.98217 11.29452 35912 ft 483 kts 355°
2026-05-06 19:55 53.04936 11.29036 35914 ft 483 kts 355°
2026-05-06 19:55 53.11657 11.28626 35915 ft 483 kts 355°
2026-05-06 19:56 53.18388 11.28519 35924 ft 484 kts 358°
2026-05-06 19:56 53.23988 11.28715 35932 ft 484 kts 359°
2026-05-06 19:57 53.31806 11.28994 35935 ft 483 kts 358°
2026-05-06 19:57 53.38525 11.29136 35927 ft 483 kts 358°
2026-05-06 19:58 53.44152 11.29222 35928 ft 482 kts 358°
2026-05-06 19:58 53.50863 11.29329 35944 ft 482 kts 358°
2026-05-06 19:59 53.57574 11.29458 35935 ft 482 kts 358°
2026-05-06 19:59 53.64234 11.29588 35941 ft 482 kts 358°
2026-05-06 20:00 53.70943 11.29708 35937 ft 482 kts 358°
2026-05-06 20:00 53.77644 11.29845 35944 ft 482 kts 358°
2026-05-06 20:01 53.84350 11.29981 35947 ft 481 kts 358°
2026-05-06 20:01 53.91047 11.30104 35947 ft 481 kts 358°
2026-05-06 20:02 53.97741 11.30220 35967 ft 481 kts 358°
2026-05-06 20:02 54.04435 11.30347 35964 ft 481 kts 358°
2026-05-06 20:03 54.11122 11.30480 35961 ft 480 kts 358°
2026-05-06 20:03 54.17807 11.30609 35966 ft 480 kts 358°
2026-05-06 20:04 54.24490 11.30736 35983 ft 480 kts 358°
2026-05-06 20:04 54.31172 11.30868 35978 ft 480 kts 358°
2026-05-06 20:05 54.37858 11.31000 35979 ft 480 kts 358°
2026-05-06 20:05 54.44542 11.31133 35987 ft 480 kts 358°
2026-05-06 20:06 54.51220 11.31265 35969 ft 478 kts 358°
2026-05-06 20:06 54.57855 11.31426 35977 ft 477 kts 359°
2026-05-06 20:07 54.64492 11.31911 35988 ft 478 kts
2026-05-06 20:07 54.71138 11.32574 35992 ft 479 kts
2026-05-06 20:08 54.77745 11.33196 36004 ft 479 kts
2026-05-06 20:08 54.84400 11.33749 36007 ft 479 kts 360°
2026-05-06 20:09 54.91056 11.34286 36007 ft 479 kts 360°
2026-05-06 20:09 54.97713 11.34842 36009 ft 479 kts 360°
2026-05-06 20:10 55.04370 11.35401 36016 ft 479 kts 360°
2026-05-06 20:10 55.11034 11.35974 36013 ft 479 kts 360°
2026-05-06 20:11 55.17699 11.36547 36012 ft 479 kts 360°
2026-05-06 20:11 55.24362 11.37116 36011 ft 480 kts 360°
2026-05-06 20:12 55.31030 11.37691 36020 ft 480 kts 360°
2026-05-06 20:12 55.37698 11.38261 36015 ft 480 kts 360°
2026-05-06 20:13 55.44374 11.38840 36015 ft 480 kts 360°
2026-05-06 20:13 55.51046 11.39425 36016 ft 480 kts 360°
2026-05-06 20:14 55.57717 11.40001 36017 ft 480 kts 360°
2026-05-06 20:14 55.64391 11.40579 36017 ft 480 kts 360°
2026-05-06 20:15 55.71065 11.41173 36017 ft 480 kts 360°
2026-05-06 20:15 55.77741 11.41759 36035 ft 480 kts 359°
2026-05-06 20:16 55.84420 11.42342 36025 ft 481 kts 359°
2026-05-06 20:16 55.91108 11.42939 36020 ft 481 kts 360°
2026-05-06 20:17 55.97754 11.43527 36019 ft 481 kts 359°
2026-05-06 20:17 56.04493 11.44122 36039 ft 482 kts 359°
2026-05-06 20:18 56.11140 11.44714 36017 ft 481 kts 359°
2026-05-06 20:18 56.17837 11.45323 36020 ft 482 kts 359°
2026-05-06 20:19 56.24534 11.45928 36018 ft 482 kts 359°
2026-05-06 20:19 56.31237 11.46525 36039 ft 482 kts 359°
2026-05-06 20:20 56.37941 11.47132 36026 ft 483 kts 359°
2026-05-06 20:20 56.44650 11.47741 36013 ft 483 kts 359°
2026-05-06 20:21 56.51356 11.48349 36022 ft 483 kts 359°
2026-05-06 20:21 56.58064 11.48962 36040 ft 483 kts 359°
2026-05-06 20:22 56.64777 11.49592 36026 ft 483 kts 359°
2026-05-06 20:22 56.71487 11.50224 36025 ft 483 kts 359°
2026-05-06 20:23 56.78199 11.50832 36024 ft 483 kts 359°
2026-05-06 20:23 56.84909 11.51460 36018 ft 483 kts 359°
2026-05-06 20:24 56.91611 11.52088 36005 ft 482 kts 358°
2026-05-06 20:24 56.98308 11.52709 36006 ft 482 kts 358°
2026-05-06 20:25 57.05017 11.53341 36013 ft 483 kts 358°
2026-05-06 20:25 57.11732 11.53973 36010 ft 483 kts 358°
2026-05-06 20:26 57.18455 11.54611 36018 ft 484 kts 358°
2026-05-06 20:26 57.25188 11.55236 36013 ft 485 kts 358°
2026-05-06 20:27 57.31881 11.55864 36011 ft 485 kts 358°
2026-05-06 20:27 57.38623 11.56528 36011 ft 485 kts 358°
2026-05-06 20:28 57.45362 11.57194 35984 ft 484 kts 358°
2026-05-06 20:28 57.52093 11.57843 35991 ft 484 kts 358°
2026-05-06 20:29 57.55417 11.58165 35976 ft 472 kts 358°
2026-05-06 20:29 57.58681 11.58487 35984 ft 468 kts 358°
2026-05-06 20:29 57.65160 11.59116 35979 ft 466 kts 358°
2026-05-06 20:30 57.74871 11.60037 35976 ft 466 kts 357°
2026-05-06 20:31 57.81348 11.60654 35978 ft 466 kts 358°
2026-05-06 20:31 57.87829 11.61294 35985 ft 467 kts 358°
2026-05-06 20:32 57.94320 11.61949 35991 ft 467 kts 358°
2026-05-06 20:32 58.00821 11.62604 36010 ft 468 kts 358°
2026-05-06 20:32 58.04073 11.62932 35909 ft 468 kts 357°
2026-05-06 20:33 58.07325 11.63256 35659 ft 467 kts 357°
2026-05-06 20:33 58.10571 11.63579 35406 ft 467 kts 357°
2026-05-06 20:33 58.13804 11.63899 34939 ft 464 kts 357°
2026-05-06 20:33 58.17017 11.64107 34423 ft 459 kts 351°
2026-05-06 20:34 58.20157 11.63532 33939 ft 448 kts 343°
2026-05-06 20:34 58.23221 11.62572 33421 ft 445 kts 343°
2026-05-06 20:34 58.26256 11.61642 32958 ft 440 kts 343°
2026-05-06 20:34 58.29261 11.60728 32492 ft 435 kts 343°
2026-05-06 20:35 58.32233 11.59823 32031 ft 430 kts 343°
2026-05-06 20:35 58.35171 11.58923 31576 ft 425 kts 343°
2026-05-06 20:35 58.38076 11.58025 31118 ft 421 kts 343°
2026-05-06 20:35 58.40956 11.57129 30678 ft 417 kts 343°
2026-05-06 20:36 58.43809 11.56243 30244 ft 413 kts 343°
2026-05-06 20:36 58.46633 11.55366 29780 ft 409 kts 342°
2026-05-06 20:36 58.49425 11.54496 29355 ft 403 kts 342°
2026-05-06 20:36 58.52175 11.53641 28990 ft 398 kts 342°
2026-05-06 20:37 58.54893 11.52789 28544 ft 394 kts 342°
2026-05-06 20:37 58.57542 11.51957 28164 ft 388 kts 342°
2026-05-06 20:37 58.60188 11.51126 27785 ft 383 kts 342°
2026-05-06 20:37 58.62832 11.50297 27390 ft 378 kts 342°
2026-05-06 20:38 58.65375 11.49493 27018 ft 373 kts 342°
2026-05-06 20:38 58.67917 11.48688 26648 ft 368 kts 342°
2026-05-06 20:38 58.70429 11.47896 26271 ft 363 kts 342°
2026-05-06 20:38 58.72908 11.47114 25899 ft 359 kts 342°
2026-05-06 20:39 58.75352 11.46337 25524 ft 354 kts 342°
2026-05-06 20:39 58.77769 11.45565 25159 ft 350 kts 342°
2026-05-06 20:39 58.80163 11.44797 24768 ft 348 kts 342°
2026-05-06 20:39 58.82540 11.44035 24400 ft 345 kts 342°
2026-05-06 20:40 58.84904 11.43283 24009 ft 343 kts 343°
2026-05-06 20:40 58.87253 11.42540 23614 ft 341 kts 343°
2026-05-06 20:40 58.89582 11.41802 23183 ft 337 kts 343°
2026-05-06 20:40 58.91882 11.41071 22780 ft 333 kts 343°
2026-05-06 20:41 58.94151 11.40343 22400 ft 328 kts 343°
2026-05-06 20:41 58.96395 11.39623 22021 ft 325 kts 343°
2026-05-06 20:41 58.98615 11.38912 21639 ft 322 kts 343°
2026-05-06 20:41 59.00816 11.38205 21265 ft 320 kts 343°
2026-05-06 20:42 59.03003 11.37503 20882 ft 317 kts 343°
2026-05-06 20:42 59.05174 11.36803 20510 ft 315 kts 343°
2026-05-06 20:42 59.07329 11.36105 20135 ft 313 kts 343°
2026-05-06 20:42 59.09467 11.35410 19764 ft 311 kts 343°
2026-05-06 20:43 59.11586 11.34697 19410 ft 307 kts 341°
2026-05-06 20:43 59.13666 11.33835 19028 ft 304 kts 339°
2026-05-06 20:43 59.15713 11.32889 18643 ft 301 kts 339°
2026-05-06 20:43 59.17739 11.31919 18280 ft 299 kts 339°
2026-05-06 20:44 59.19800 11.31279 17880 ft 300 kts 346°
2026-05-06 20:44 59.21867 11.30828 17512 ft 297 kts 346°
2026-05-06 20:44 59.23909 11.30401 17150 ft 294 kts 347°
2026-05-06 20:44 59.25931 11.29984 16795 ft 292 kts 347°
2026-05-06 20:45 59.27947 11.29566 16441 ft 290 kts 347°
2026-05-06 20:45 59.29950 11.29144 16091 ft 289 kts 347°
2026-05-06 20:45 59.31271 11.28865 15859 ft 288 kts 347°
2026-05-06 20:45 59.33260 11.28446 15509 ft 287 kts 347°
2026-05-06 20:46 59.35243 11.28035 15165 ft 286 kts 347°
2026-05-06 20:46 59.37217 11.27629 14818 ft 285 kts 348°
2026-05-06 20:46 59.39185 11.27224 14473 ft 284 kts 348°
2026-05-06 20:46 59.41144 11.26818 14145 ft 283 kts 347°
2026-05-06 20:47 59.43103 11.26405 13797 ft 283 kts 348°
2026-05-06 20:47 59.45057 11.25995 13432 ft 282 kts 348°
2026-05-06 20:47 59.47003 11.25569 13096 ft 281 kts 347°
2026-05-06 20:47 59.48938 11.25117 12751 ft 279 kts 347°
2026-05-06 20:48 59.50861 11.24654 12427 ft 278 kts 347°
2026-05-06 20:48 59.52778 11.24186 12087 ft 277 kts 348°
2026-05-06 20:48 59.54683 11.23723 11755 ft 275 kts 348°
2026-05-06 20:48 59.56581 11.23264 11423 ft 274 kts 348°
2026-05-06 20:49 59.58467 11.22808 11156 ft 270 kts 348°
2026-05-06 20:49 59.60314 11.22368 10911 ft 265 kts 348°
2026-05-06 20:49 59.62104 11.21944 10938 ft 259 kts 348°
2026-05-06 20:49 59.63870 11.21235 10875 ft 260 kts 338°
2026-05-06 20:50 59.65604 11.20168 10543 ft 259 kts 338°
2026-05-06 20:50 59.67322 11.19102 10185 ft 260 kts 338°
2026-05-06 20:50 59.69047 11.18031 9854 ft 259 kts 338°
2026-05-06 20:50 59.70752 11.16978 9601 ft 255 kts 338°
2026-05-06 20:51 59.72448 11.15928 9213 ft 254 kts 339°
2026-05-06 20:51 59.74128 11.14888 8838 ft 253 kts 339°
2026-05-06 20:51 59.75799 11.13851 8513 ft 251 kts 339°
2026-05-06 20:51 59.77462 11.12816 8199 ft 249 kts 340°
2026-05-06 20:52 59.79115 11.11784 7853 ft 248 kts 340°
2026-05-06 20:52 59.80759 11.10758 7524 ft 247 kts 340°
2026-05-06 20:52 59.82393 11.09743 7169 ft 246 kts 341°
2026-05-06 20:52 59.84019 11.08733 6859 ft 244 kts 341°
2026-05-06 20:53 59.85639 11.07722 6532 ft 243 kts 341°
2026-05-06 20:53 59.87247 11.06720 6184 ft 242 kts 342°
2026-05-06 20:53 59.88826 11.05738 5851 ft 240 kts 342°
2026-05-06 20:53 59.90414 11.04751 5529 ft 238 kts 342°
2026-05-06 20:54 59.91983 11.03773 5217 ft 235 kts 342°
2026-05-06 20:54 59.93537 11.02799 4916 ft 234 kts 341°
2026-05-06 20:54 59.95102 11.01817 4639 ft 237 kts 342°
2026-05-06 20:54 59.96681 11.00831 4424 ft 234 kts 342°
2026-05-06 20:55 59.98224 11.00101 4383 ft 224 kts 355°
2026-05-06 20:55 59.99804 11.00470 4215 ft 234 kts 15°
2026-05-06 20:55 60.01318 11.01409 4137 ft 221 kts 17°
2026-05-06 20:55 60.02739 11.02287 3960 ft 210 kts 15°
2026-05-06 20:56 60.04111 11.03067 3664 ft 201 kts 14°
2026-05-06 20:56 60.05436 11.03811 3311 ft 195 kts 14°
2026-05-06 20:56 60.06715 11.04539 3009 ft 188 kts 14°
2026-05-06 20:56 60.07950 11.05247 2727 ft 181 kts 14°
2026-05-06 20:57 60.09138 11.05941 2491 ft 175 kts 14°
2026-05-06 20:57 60.10281 11.06599 2268 ft 166 kts 13°
2026-05-06 20:57 60.11335 11.07192 2093 ft 149 kts 13°
2026-05-06 20:57 60.12292 11.07746 1851 ft 139 kts 13°
2026-05-06 20:58 60.13229 11.08295 1648 ft 141 kts 13°
2026-05-06 20:58 60.14177 11.08820 1443 ft 142 kts 13°
2026-05-06 20:58 60.15137 11.09356 1225 ft 144 kts 14°
2026-05-06 20:58 60.16089 11.09918 1018 ft 142 kts 14°
2026-05-06 20:59 60.17024 11.10460 824 ft 139 kts 14°
2026-05-06 20:59 60.17944 11.10985 680 ft 131 kts 14°
2026-05-06 20:59 60.18707 11.11425 676 ft 91 kts 16°
2026-05-06 20:59 60.19074 11.11633 679 ft 35 kts 15°
2026-05-06 21:00 60.19260 11.11687 680 ft 20 kts 360°
2026-05-06 21:00 60.19360 11.11606 680 ft 14 kts 306°
2026-05-06 21:00 60.19396 11.11407 678 ft 16 kts 286°
2026-05-06 21:00 60.19420 11.11232 680 ft 13 kts 284°
2026-05-06 21:01 60.19448 11.11039 680 ft 15 kts 287°
2026-05-06 21:01 60.19474 11.10869 680 ft 11 kts 287°
2026-05-06 21:01 60.19495 11.10720 677 ft 12 kts 285°
2026-05-06 21:01 60.19515 11.10569 680 ft 10 kts 286°
2026-05-06 21:02 60.19536 11.10438 680 ft 10 kts 297°
2026-05-06 21:02 60.19603 11.10400 680 ft 10 kts 353°
2026-05-06 21:02 60.19628 11.10303 680 ft 5 kts 282°
2026-05-06 21:02 60.19634 11.10257 680 ft 2 kts 285°
2026-05-06 21:03 60.19638 11.10230 676 ft 1 kts 285°
2026-05-06 21:03 60.19638 11.10228 676 ft 0 kts 285°